KAL133 RKSI-ZHCC

Flight info

Callsign KAL133
Flight time 1h 57m
Altitude 36000
Route NOPIK Y697 AGAVO/K0820S1100 A591 IKEKA W4 TAMIX B208 NOPIN
Aircraft B738/M-SDE2FGHIM3RWXY/LB1

Departure

Time 2026-05-05 15:05
Airport Incheon International Airport (RKSI)

Arrival

Time 2026-05-05 17:03
Airport Zhengzhou Xinzheng International Airport (ZHCC)
Time Latitude Longitude Altitude Speed Heading
2026-05-05 14:44 37.46353 126.43414 28 ft 0 kts 238°
2026-05-05 14:49 37.46355 126.43419 28 ft 2 kts 238°
2026-05-05 14:49 37.46363 126.43435 28 ft 2 kts 238°
2026-05-05 14:49 37.46371 126.43451 28 ft 2 kts 238°
2026-05-05 14:49 37.46379 126.43467 28 ft 2 kts 236°
2026-05-05 14:50 37.46389 126.43481 28 ft 2 kts 215°
2026-05-05 14:50 37.46401 126.43494 28 ft 2 kts 223°
2026-05-05 14:50 37.46412 126.43506 28 ft 2 kts 220°
2026-05-05 14:50 37.46423 126.43520 28 ft 2 kts 228°
2026-05-05 14:51 37.46433 126.43534 28 ft 2 kts 232°
2026-05-05 14:51 37.46441 126.43549 28 ft 1 kts 234°
2026-05-05 14:51 37.46442 126.43552 28 ft 0 kts 234°
2026-05-05 14:54 37.46438 126.43543 28 ft 2 kts 234°
2026-05-05 14:55 37.46422 126.43520 28 ft 4 kts 219°
2026-05-05 14:55 37.46381 126.43519 28 ft 7 kts 147°
2026-05-05 14:55 37.46328 126.43567 28 ft 10 kts 144°
2026-05-05 14:55 37.46259 126.43628 28 ft 12 kts 144°
2026-05-05 14:56 37.46188 126.43651 28 ft 10 kts 208°
2026-05-05 14:56 37.46143 126.43582 28 ft 10 kts 234°
2026-05-05 14:56 37.46096 126.43499 28 ft 12 kts 234°
2026-05-05 14:56 37.46042 126.43404 28 ft 13 kts 234°
2026-05-05 14:57 37.45988 126.43308 28 ft 12 kts 234°
2026-05-05 14:57 37.45940 126.43219 28 ft 11 kts 249°
2026-05-05 14:57 37.45966 126.43137 28 ft 10 kts 323°
2026-05-05 14:57 37.46025 126.43083 28 ft 10 kts 324°
2026-05-05 14:58 37.46093 126.43024 28 ft 12 kts 324°
2026-05-05 14:58 37.46172 126.42954 28 ft 15 kts 324°
2026-05-05 14:58 37.46266 126.42870 28 ft 17 kts 324°
2026-05-05 14:58 37.46372 126.42776 28 ft 18 kts 324°
2026-05-05 14:59 37.46474 126.42685 28 ft 17 kts 324°
2026-05-05 14:59 37.46572 126.42598 28 ft 16 kts 324°
2026-05-05 14:59 37.46668 126.42512 28 ft 17 kts 324°
2026-05-05 14:59 37.46768 126.42423 28 ft 18 kts 324°
2026-05-05 15:00 37.46876 126.42327 28 ft 19 kts 324°
2026-05-05 15:00 37.46949 126.42262 28 ft 19 kts 324°
2026-05-05 15:00 37.47087 126.42139 28 ft 17 kts 324°
2026-05-05 15:00 37.47184 126.42052 28 ft 16 kts 324°
2026-05-05 15:01 37.47273 126.41974 28 ft 14 kts 324°
2026-05-05 15:01 37.47346 126.41909 28 ft 11 kts 324°
2026-05-05 15:01 37.47401 126.41853 28 ft 8 kts 302°
2026-05-05 15:01 37.47394 126.41787 28 ft 7 kts 236°
2026-05-05 15:02 37.47366 126.41734 28 ft 6 kts 236°
2026-05-05 15:02 37.47340 126.41688 28 ft 5 kts 234°
2026-05-05 15:02 37.47316 126.41645 28 ft 6 kts 235°
2026-05-05 15:02 37.47289 126.41597 28 ft 6 kts 234°
2026-05-05 15:03 37.47255 126.41574 28 ft 5 kts 165°
2026-05-05 15:03 37.47236 126.41588 28 ft 0 kts 144°
2026-05-05 15:04 37.47234 126.41589 28 ft 2 kts 144°
2026-05-05 15:04 37.47090 126.41718 28 ft 58 kts 144°
2026-05-05 15:04 37.46581 126.42171 28 ft 118 kts 144°
2026-05-05 15:05 37.44792 126.43751 583 ft 169 kts 148°
2026-05-05 15:05 37.43784 126.44505 1266 ft 169 kts 153°
2026-05-05 15:05 37.42733 126.45258 1710 ft 185 kts 153°
2026-05-05 15:06 37.41584 126.46117 2245 ft 197 kts 153°
2026-05-05 15:06 37.40366 126.47044 2681 ft 215 kts 152°
2026-05-05 15:06 37.39053 126.48039 3312 ft 222 kts 154°
2026-05-05 15:06 37.37662 126.48858 3890 ft 225 kts 165°
2026-05-05 15:07 37.36115 126.49384 4343 ft 236 kts 170°
2026-05-05 15:07 37.34453 126.49869 4732 ft 252 kts 169°
2026-05-05 15:07 37.32708 126.50414 5189 ft 264 kts 168°
2026-05-05 15:07 37.30896 126.51010 5788 ft 271 kts 169°
2026-05-05 15:08 37.29030 126.51337 6380 ft 273 kts 185°
2026-05-05 15:08 37.27210 126.50781 6998 ft 272 kts 209°
2026-05-05 15:08 37.25685 126.49394 7683 ft 271 kts 224°
2026-05-05 15:08 37.24318 126.47751 8280 ft 275 kts 224°
2026-05-05 15:09 37.22924 126.46089 8931 ft 278 kts 224°
2026-05-05 15:09 37.21497 126.44413 9554 ft 281 kts 223°
2026-05-05 15:09 37.20064 126.42737 10142 ft 285 kts 223°
2026-05-05 15:09 37.18594 126.41017 10482 ft 299 kts 223°
2026-05-05 15:10 37.17024 126.39178 10779 ft 314 kts 223°
2026-05-05 15:10 37.15395 126.37270 11061 ft 329 kts 223°
2026-05-05 15:10 37.13679 126.35260 11322 ft 344 kts 224°
2026-05-05 15:10 37.12045 126.33031 11766 ft 352 kts 233°
2026-05-05 15:11 37.10870 126.30298 12304 ft 358 kts 251°
2026-05-05 15:11 37.10386 126.27246 12840 ft 363 kts 266°
2026-05-05 15:11 37.10301 126.24040 13390 ft 368 kts 269°
2026-05-05 15:11 37.10283 126.20834 13930 ft 374 kts 270°
2026-05-05 15:12 37.10276 126.17550 14570 ft 378 kts 270°
2026-05-05 15:12 37.10280 126.14286 15196 ft 381 kts 272°
2026-05-05 15:12 37.10508 126.10953 15856 ft 383 kts 279°
2026-05-05 15:12 37.11094 126.07701 16475 ft 385 kts 287°
2026-05-05 15:13 37.11962 126.04542 17083 ft 387 kts 292°
2026-05-05 15:13 37.12994 126.01391 17726 ft 389 kts 294°
2026-05-05 15:13 37.14080 125.98304 18306 ft 392 kts 295°
2026-05-05 15:13 37.15193 125.95202 18887 ft 394 kts 295°
2026-05-05 15:14 37.16324 125.92038 19484 ft 396 kts 295°
2026-05-05 15:14 37.17435 125.88881 20053 ft 398 kts 295°
2026-05-05 15:14 37.18545 125.85690 20604 ft 401 kts 295°
2026-05-05 15:14 37.19661 125.82462 21141 ft 403 kts 294°
2026-05-05 15:15 37.20775 125.79221 21668 ft 405 kts 294°
2026-05-05 15:15 37.21880 125.75992 22187 ft 407 kts 294°
2026-05-05 15:15 37.22999 125.72719 22673 ft 410 kts 294°
2026-05-05 15:15 37.24119 125.69434 23204 ft 410 kts 294°
2026-05-05 15:16 37.25240 125.66143 23623 ft 414 kts 294°
2026-05-05 15:16 37.26377 125.62801 24103 ft 416 kts 294°
2026-05-05 15:16 37.27521 125.59435 24543 ft 418 kts 295°
2026-05-05 15:16 37.28664 125.56068 24948 ft 422 kts 294°
2026-05-05 15:17 37.29816 125.52673 25399 ft 424 kts 295°
2026-05-05 15:17 37.30968 125.49276 25798 ft 426 kts 295°
2026-05-05 15:17 37.32133 125.45834 26283 ft 427 kts 295°
2026-05-05 15:17 37.33291 125.42409 26683 ft 430 kts 295°
2026-05-05 15:18 37.34466 125.38929 27082 ft 432 kts 295°
2026-05-05 15:18 37.35631 125.35476 27500 ft 433 kts 295°
2026-05-05 15:18 37.36809 125.31979 27853 ft 436 kts 294°
2026-05-05 15:18 37.37963 125.28421 28225 ft 439 kts 291°
2026-05-05 15:19 37.38882 125.24764 28552 ft 443 kts 285°
2026-05-05 15:19 37.39434 125.20905 28917 ft 447 kts 278°
2026-05-05 15:19 37.39648 125.16992 29230 ft 451 kts 274°
2026-05-05 15:19 37.39684 125.13049 29559 ft 454 kts 272°
2026-05-05 15:20 37.39631 125.09096 29889 ft 456 kts 271°
2026-05-05 15:20 37.39535 125.05068 30317 ft 456 kts 270°
2026-05-05 15:20 37.39427 125.01126 30884 ft 452 kts 270°
2026-05-05 15:20 37.39318 124.97199 31356 ft 449 kts 270°
2026-05-05 15:21 37.39214 124.93259 31733 ft 449 kts 270°
2026-05-05 15:21 37.39117 124.89325 32087 ft 449 kts 271°
2026-05-05 15:21 37.39027 124.85413 32510 ft 447 kts 271°
2026-05-05 15:21 37.38939 124.81458 32931 ft 445 kts 271°
2026-05-05 15:22 37.38853 124.77538 33389 ft 441 kts 271°
2026-05-05 15:22 37.38769 124.73640 33760 ft 440 kts 271°
2026-05-05 15:22 37.38685 124.69776 34079 ft 439 kts 271°
2026-05-05 15:22 37.38601 124.65899 34330 ft 439 kts 271°
2026-05-05 15:23 37.38517 124.62088 34636 ft 437 kts 271°
2026-05-05 15:23 37.38433 124.58296 34873 ft 436 kts 271°
2026-05-05 15:23 37.38346 124.54421 35063 ft 436 kts 271°
2026-05-05 15:23 37.38260 124.50607 35311 ft 435 kts 271°
2026-05-05 15:24 37.38107 124.46752 35554 ft 434 kts 267°
2026-05-05 15:24 37.37687 124.42996 35763 ft 436 kts 261°
2026-05-05 15:24 37.36916 124.39252 35960 ft 437 kts 254°
2026-05-05 15:25 37.34110 124.32343 36000 ft 444 kts 240°
2026-05-05 15:25 37.30610 124.25934 35991 ft 443 kts 238°
2026-05-05 15:26 37.27084 124.19520 36095 ft 445 kts 239°
2026-05-05 15:26 37.23655 124.13025 36084 ft 443 kts 240°
2026-05-05 15:27 37.20241 124.06580 36080 ft 443 kts 239°
2026-05-05 15:27 37.16779 124.00159 36086 ft 445 kts 239°
2026-05-05 15:28 37.13367 123.93704 36075 ft 443 kts 240°
2026-05-05 15:28 37.10004 123.87186 36085 ft 444 kts 240°
2026-05-05 15:29 37.06670 123.80705 36077 ft 443 kts 240°
2026-05-05 15:29 37.03309 123.74193 36079 ft 445 kts 240°
2026-05-05 15:30 36.99941 123.67687 36067 ft 443 kts 240°
2026-05-05 15:30 36.96583 123.61220 36078 ft 444 kts 240°
2026-05-05 15:31 36.93203 123.54725 36064 ft 444 kts 240°
2026-05-05 15:31 36.89821 123.48241 36068 ft 444 kts 240°
2026-05-05 15:32 36.86683 123.41684 36067 ft 440 kts 249°
2026-05-05 15:32 36.85119 123.34386 36057 ft 432 kts 268°
2026-05-05 15:33 36.85251 123.26917 36066 ft 427 kts 281°
2026-05-05 15:33 36.86637 123.19761 36072 ft 424 kts 288°
2026-05-05 15:34 36.88420 123.12741 36050 ft 423 kts 290°
2026-05-05 15:34 36.90212 123.05761 36057 ft 423 kts 289°
2026-05-05 15:35 36.91966 122.98723 36046 ft 423 kts 289°
2026-05-05 15:35 36.93680 122.91678 36047 ft 423 kts 289°
2026-05-05 15:36 36.95373 122.84615 36051 ft 422 kts 289°
2026-05-05 15:36 36.97047 122.77589 36047 ft 420 kts 289°
2026-05-05 15:37 36.98706 122.70595 36047 ft 420 kts 289°
2026-05-05 15:37 37.00375 122.63533 36040 ft 420 kts 289°
2026-05-05 15:38 37.02027 122.56519 36043 ft 418 kts 289°
2026-05-05 15:38 37.03681 122.49486 36040 ft 420 kts 289°
2026-05-05 15:39 37.05331 122.42439 36038 ft 418 kts 290°
2026-05-05 15:39 37.07293 122.35646 36039 ft 413 kts 301°
2026-05-05 15:40 37.10754 122.29949 36032 ft 410 kts 317°
2026-05-05 15:40 37.15087 122.25392 36038 ft 406 kts 320°
2026-05-05 15:41 37.18713 122.19949 36032 ft 412 kts 301°
2026-05-05 15:41 37.20938 122.13270 36029 ft 415 kts 292°
2026-05-05 15:42 37.22736 122.06359 36030 ft 415 kts 291°
2026-05-05 15:42 37.24478 121.99441 36027 ft 415 kts 291°
2026-05-05 15:43 37.26225 121.92556 36026 ft 414 kts 291°
2026-05-05 15:43 37.27999 121.85614 36034 ft 414 kts 291°
2026-05-05 15:44 37.29760 121.78735 36041 ft 414 kts 292°
2026-05-05 15:44 37.31505 121.71915 36045 ft 412 kts 291°
2026-05-05 15:45 37.33263 121.65028 36021 ft 413 kts 292°
2026-05-05 15:45 37.35013 121.58152 36006 ft 411 kts 292°
2026-05-05 15:46 37.36750 121.51308 36002 ft 410 kts 292°
2026-05-05 15:46 37.38496 121.44416 35992 ft 410 kts 292°
2026-05-05 15:47 37.40241 121.37505 35982 ft 409 kts 291°
2026-05-05 15:47 37.41975 121.30617 35977 ft 409 kts 291°
2026-05-05 15:48 37.43684 121.23807 35980 ft 409 kts 291°
2026-05-05 15:48 37.45394 121.17015 35982 ft 410 kts 292°
2026-05-05 15:49 37.47398 121.10329 35970 ft 405 kts 295°
2026-05-05 15:49 37.49558 121.03777 35970 ft 404 kts 296°
2026-05-05 15:50 37.51699 120.97240 35967 ft 404 kts 295°
2026-05-05 15:50 37.53822 120.90638 35971 ft 404 kts 295°
2026-05-05 15:51 37.55920 120.84045 35968 ft 404 kts 295°
2026-05-05 15:51 37.58004 120.77452 35975 ft 403 kts 295°
2026-05-05 15:52 37.60113 120.70850 35965 ft 404 kts 296°
2026-05-05 15:52 37.62259 120.64346 35971 ft 402 kts 296°
2026-05-05 15:53 37.64313 120.57735 35976 ft 405 kts 291°
2026-05-05 15:53 37.65179 120.50702 35973 ft 412 kts 276°
2026-05-05 15:54 37.64872 120.43353 35957 ft 417 kts 270°
2026-05-05 15:54 37.64309 120.36056 35960 ft 417 kts 270°
2026-05-05 15:55 37.63739 120.28768 35951 ft 417 kts 270°
2026-05-05 15:55 37.63192 120.21467 35955 ft 416 kts 270°
2026-05-05 15:56 37.62660 120.14197 35954 ft 415 kts 270°
2026-05-05 15:56 37.62134 120.06979 35927 ft 415 kts 270°
2026-05-05 15:57 37.61602 119.99670 36029 ft 418 kts 270°
2026-05-05 15:57 37.61064 119.92436 35943 ft 412 kts 270°
2026-05-05 15:58 37.60528 119.85199 35950 ft 413 kts 270°
2026-05-05 15:58 37.59989 119.78009 35938 ft 413 kts 270°
2026-05-05 15:59 37.59444 119.70809 35935 ft 412 kts 271°
2026-05-05 15:59 37.58907 119.63597 35930 ft 413 kts 271°
2026-05-05 16:00 37.58421 119.56410 35931 ft 412 kts 272°
2026-05-05 16:00 37.57951 119.49232 35924 ft 410 kts 271°
2026-05-05 16:01 37.57452 119.41949 35929 ft 413 kts 272°
2026-05-05 16:01 37.56945 119.34750 35924 ft 411 kts 271°
2026-05-05 16:02 37.56431 119.27537 35922 ft 412 kts 271°
2026-05-05 16:02 37.55915 119.20349 35916 ft 411 kts 271°
2026-05-05 16:03 37.55391 119.13126 35916 ft 411 kts 271°
2026-05-05 16:03 37.54863 119.05946 35905 ft 411 kts 271°
2026-05-05 16:04 37.54333 118.98719 35904 ft 412 kts 271°
2026-05-05 16:04 37.53801 118.91575 35889 ft 411 kts 271°
2026-05-05 16:05 37.53263 118.84377 35894 ft 411 kts 272°
2026-05-05 16:05 37.52712 118.77243 35887 ft 411 kts 271°
2026-05-05 16:06 37.51894 118.70050 35901 ft 414 kts 268°
2026-05-05 16:06 37.50952 118.62908 35883 ft 412 kts 268°
2026-05-05 16:07 37.50004 118.55679 35886 ft 413 kts 268°
2026-05-05 16:07 37.49088 118.48549 35888 ft 414 kts 269°
2026-05-05 16:08 37.48179 118.41384 35885 ft 414 kts 269°
2026-05-05 16:08 37.47266 118.34213 35885 ft 414 kts 268°
2026-05-05 16:09 37.46352 118.27059 35889 ft 415 kts 269°
2026-05-05 16:09 37.45433 118.19899 35888 ft 410 kts 269°
2026-05-05 16:10 37.44545 118.12819 35889 ft 413 kts 269°
2026-05-05 16:10 37.43654 118.05631 35884 ft 412 kts 269°
2026-05-05 16:11 37.42757 117.98475 35882 ft 413 kts 269°
2026-05-05 16:12 37.40944 117.84199 35873 ft 412 kts 269°
2026-05-05 16:13 37.38663 117.66429 35876 ft 409 kts 269°
2026-05-05 16:13 37.37746 117.59357 35866 ft 411 kts 269°
2026-05-05 16:14 37.35861 117.45222 35858 ft 414 kts 268°
2026-05-05 16:15 37.31864 117.31267 35859 ft 429 kts 255°
2026-05-05 16:16 37.26849 117.17639 35853 ft 428 kts 255°
2026-05-05 16:17 37.23122 117.07378 35857 ft 429 kts 255°
2026-05-05 16:18 37.19406 116.97147 35852 ft 429 kts 255°
2026-05-05 16:19 37.15688 116.86949 35839 ft 428 kts 255°
2026-05-05 16:19 37.12007 116.76730 35849 ft 425 kts 256°
2026-05-05 16:20 37.07406 116.63078 35847 ft 425 kts 257°
2026-05-05 16:22 37.01584 116.45940 35840 ft 426 kts 256°
2026-05-05 16:23 36.96904 116.32304 35842 ft 422 kts 256°
2026-05-05 16:23 36.93398 116.22111 35825 ft 420 kts 256°
2026-05-05 16:24 36.91071 116.15386 35832 ft 422 kts 256°
2026-05-05 16:25 36.87542 116.05180 35831 ft 425 kts 256°
2026-05-05 16:25 36.84006 115.95018 35815 ft 421 kts 256°
2026-05-05 16:26 36.79293 115.81495 35826 ft 423 kts 256°
2026-05-05 16:27 36.76914 115.74719 35831 ft 422 kts 255°
2026-05-05 16:27 36.74559 115.68022 35840 ft 421 kts 256°
2026-05-05 16:28 36.72209 115.61349 35842 ft 421 kts 255°
2026-05-05 16:28 36.69843 115.54649 35830 ft 419 kts 255°
2026-05-05 16:29 36.67477 115.47956 35836 ft 421 kts 256°
2026-05-05 16:29 36.65093 115.41225 35831 ft 422 kts 255°
2026-05-05 16:30 36.62699 115.34489 35821 ft 422 kts 255°
2026-05-05 16:30 36.60306 115.27769 35813 ft 422 kts 255°
2026-05-05 16:31 36.57906 115.21046 35815 ft 422 kts 254°
2026-05-05 16:31 36.55121 115.14536 35813 ft 431 kts 244°
2026-05-05 16:32 36.53243 115.11587 35817 ft 442 kts 237°
2026-05-05 16:32 36.51072 115.08732 35816 ft 449 kts 234°
2026-05-05 16:32 36.46549 115.03387 35822 ft 450 kts 232°
2026-05-05 16:33 36.41889 114.98055 35811 ft 450 kts 232°
2026-05-05 16:33 36.37380 114.92716 35508 ft 446 kts 236°
2026-05-05 16:34 36.35392 114.89781 35216 ft 437 kts 242°
2026-05-05 16:34 36.33698 114.86721 34933 ft 431 kts 246°
2026-05-05 16:34 36.32149 114.83536 34644 ft 430 kts 248°
2026-05-05 16:34 36.30649 114.80266 34351 ft 433 kts 249°
2026-05-05 16:35 36.29170 114.76990 34061 ft 434 kts 249°
2026-05-05 16:35 36.27681 114.73712 33768 ft 435 kts 248°
2026-05-05 16:35 36.26170 114.70453 33484 ft 438 kts 248°
2026-05-05 16:35 36.24614 114.67174 33222 ft 441 kts 247°
2026-05-05 16:36 36.23039 114.63911 32961 ft 442 kts 246°
2026-05-05 16:36 36.21450 114.60647 32650 ft 442 kts 246°
2026-05-05 16:36 36.19862 114.57403 32253 ft 439 kts 246°
2026-05-05 16:36 36.18275 114.54176 31854 ft 432 kts 246°
2026-05-05 16:37 36.16732 114.51052 31464 ft 427 kts 246°
2026-05-05 16:37 36.15193 114.47933 31075 ft 424 kts 246°
2026-05-05 16:37 36.13649 114.44799 30666 ft 423 kts 246°
2026-05-05 16:37 36.12122 114.41698 30145 ft 422 kts 246°
2026-05-05 16:38 36.10605 114.38621 29742 ft 416 kts 246°
2026-05-05 16:38 36.09105 114.35585 29354 ft 412 kts 246°
2026-05-05 16:38 36.07582 114.32500 28946 ft 412 kts 245°
2026-05-05 16:38 36.06097 114.29491 28486 ft 409 kts 245°
2026-05-05 16:39 36.04622 114.26510 28030 ft 406 kts 245°
2026-05-05 16:39 36.03142 114.23521 27573 ft 404 kts 244°
2026-05-05 16:39 36.01688 114.20585 27117 ft 401 kts 244°
2026-05-05 16:39 36.00228 114.17638 26661 ft 399 kts 244°
2026-05-05 16:40 35.98788 114.14735 26240 ft 396 kts 244°
2026-05-05 16:40 35.97339 114.11818 25857 ft 392 kts 244°
2026-05-05 16:40 35.95923 114.08968 25482 ft 390 kts 244°
2026-05-05 16:40 35.94508 114.06124 25104 ft 388 kts 244°
2026-05-05 16:41 35.93100 114.03294 24730 ft 387 kts 243°
2026-05-05 16:41 35.91689 114.00458 24346 ft 385 kts 243°
2026-05-05 16:41 35.90295 113.97659 23968 ft 382 kts 243°
2026-05-05 16:41 35.88890 113.94843 23586 ft 381 kts 243°
2026-05-05 16:42 35.87499 113.92056 23207 ft 379 kts 243°
2026-05-05 16:42 35.86127 113.89310 22901 ft 377 kts 243°
2026-05-05 16:42 35.84745 113.86546 22652 ft 377 kts 242°
2026-05-05 16:42 35.83373 113.83804 22400 ft 377 kts 242°
2026-05-05 16:43 35.81986 113.81036 22149 ft 375 kts 242°
2026-05-05 16:43 35.80621 113.78317 21899 ft 372 kts 242°
2026-05-05 16:43 35.79239 113.75600 21650 ft 373 kts 240°
2026-05-05 16:43 35.77587 113.73087 21398 ft 376 kts 229°
2026-05-05 16:44 35.75582 113.71026 21150 ft 379 kts 218°
2026-05-05 16:44 35.73243 113.69453 20901 ft 382 kts 206°
2026-05-05 16:44 35.70725 113.68412 20658 ft 384 kts 198°
2026-05-05 16:44 35.68089 113.67773 20415 ft 384 kts 192°
2026-05-05 16:45 35.65424 113.67372 20171 ft 385 kts 189°
2026-05-05 16:45 35.62738 113.67060 19859 ft 385 kts 188°
2026-05-05 16:45 35.60077 113.66770 19488 ft 383 kts 188°
2026-05-05 16:45 35.57408 113.66469 19117 ft 378 kts 188°
2026-05-05 16:46 35.54819 113.66157 18752 ft 374 kts 189°
2026-05-05 16:46 35.52220 113.65829 18386 ft 371 kts 189°
2026-05-05 16:46 35.49663 113.65494 18026 ft 370 kts 189°
2026-05-05 16:46 35.47082 113.65147 17654 ft 368 kts 189°
2026-05-05 16:47 35.44534 113.64800 17289 ft 364 kts 189°
2026-05-05 16:47 35.42040 113.64459 16931 ft 362 kts 189°
2026-05-05 16:47 35.39520 113.64111 16567 ft 360 kts 189°
2026-05-05 16:47 35.37036 113.63769 16203 ft 358 kts 189°
2026-05-05 16:48 35.34551 113.63427 15882 ft 355 kts 189°
2026-05-05 16:48 35.32108 113.63091 15574 ft 354 kts 189°
2026-05-05 16:48 35.29641 113.62753 15263 ft 354 kts 188°
2026-05-05 16:48 35.27184 113.62415 14952 ft 352 kts 189°
2026-05-05 16:49 35.24776 113.62086 14637 ft 349 kts 188°
2026-05-05 16:49 35.22329 113.61752 14176 ft 347 kts 188°
2026-05-05 16:49 35.19944 113.61426 13724 ft 345 kts 188°
2026-05-05 16:49 35.17544 113.61098 13267 ft 343 kts 188°
2026-05-05 16:50 35.15183 113.60777 12807 ft 341 kts 188°
2026-05-05 16:50 35.12819 113.60453 12347 ft 339 kts 188°
2026-05-05 16:50 35.10490 113.60135 11897 ft 338 kts 188°
2026-05-05 16:50 35.08145 113.59815 11434 ft 336 kts 188°
2026-05-05 16:51 35.05821 113.59499 10953 ft 334 kts 188°
2026-05-05 16:51 35.03531 113.59187 10653 ft 328 kts 188°
2026-05-05 16:51 35.01275 113.58881 10323 ft 322 kts 188°
2026-05-05 16:51 34.99059 113.58581 10162 ft 311 kts 188°
2026-05-05 16:52 34.96954 113.58297 10064 ft 298 kts 188°
2026-05-05 16:52 34.94887 113.58019 9837 ft 291 kts 188°
2026-05-05 16:52 34.92856 113.57741 9428 ft 291 kts 188°
2026-05-05 16:52 34.90849 113.57465 9068 ft 290 kts 188°
2026-05-05 16:53 34.88826 113.57190 8704 ft 288 kts 188°
2026-05-05 16:53 34.86837 113.56920 8346 ft 286 kts 188°
2026-05-05 16:53 34.84848 113.56651 7989 ft 284 kts 188°
2026-05-05 16:53 34.82888 113.56386 7638 ft 282 kts 188°
2026-05-05 16:54 34.80914 113.56119 7289 ft 280 kts 188°
2026-05-05 16:54 34.79002 113.55859 7013 ft 275 kts 188°
2026-05-05 16:54 34.77119 113.55605 6912 ft 263 kts 187°
2026-05-05 16:54 34.75326 113.55364 6836 ft 250 kts 188°
2026-05-05 16:55 34.73649 113.55138 6775 ft 237 kts 188°
2026-05-05 16:55 34.72056 113.54759 6611 ft 227 kts 199°
2026-05-05 16:55 34.70589 113.54092 6315 ft 225 kts 204°
2026-05-05 16:55 34.69158 113.53337 6049 ft 219 kts 204°
2026-05-05 16:56 34.67775 113.52624 5789 ft 213 kts 203°
2026-05-05 16:56 34.66405 113.51945 5556 ft 207 kts 202°
2026-05-05 16:56 34.65052 113.51482 5324 ft 201 kts 186°
2026-05-05 16:56 34.63687 113.51766 5101 ft 199 kts 155°
2026-05-05 16:57 34.62712 113.52915 4874 ft 199 kts 125°
2026-05-05 16:57 34.62090 113.54418 4629 ft 196 kts 120°
2026-05-05 16:57 34.61542 113.55925 4385 ft 193 kts 118°
2026-05-05 16:57 34.61022 113.57418 4243 ft 189 kts 118°
2026-05-05 16:58 34.60513 113.58907 4120 ft 190 kts 118°
2026-05-05 16:58 34.60014 113.60377 3993 ft 189 kts 118°
2026-05-05 16:58 34.59511 113.61859 3874 ft 188 kts 118°
2026-05-05 16:58 34.59013 113.63333 3796 ft 187 kts 119°
2026-05-05 16:59 34.58511 113.64803 3570 ft 192 kts 119°
2026-05-05 16:59 34.57999 113.66316 3284 ft 192 kts 119°
2026-05-05 16:59 34.57499 113.67799 3023 ft 189 kts 120°
2026-05-05 16:59 34.56997 113.69275 2767 ft 185 kts 120°
2026-05-05 17:00 34.56529 113.70661 2540 ft 173 kts 120°
2026-05-05 17:00 34.56091 113.71976 2303 ft 162 kts 121°
2026-05-05 17:00 34.55652 113.73216 2083 ft 158 kts 121°
2026-05-05 17:00 34.55230 113.74455 1906 ft 155 kts 120°
2026-05-05 17:01 34.54815 113.75690 1666 ft 161 kts 120°
2026-05-05 17:01 34.54362 113.76981 1468 ft 167 kts 118°
2026-05-05 17:01 34.53957 113.78241 1205 ft 158 kts 117°
2026-05-05 17:01 34.53516 113.79488 1047 ft 158 kts 118°
2026-05-05 17:02 34.53104 113.80701 808 ft 156 kts 115°
2026-05-05 17:02 34.52676 113.81945 633 ft 156 kts 115°
2026-05-05 17:02 34.52272 113.83122 497 ft 139 kts 112°
2026-05-05 17:02 34.51986 113.83963 496 ft 76 kts 112°
2026-05-05 17:03 34.51840 113.84392 496 ft 39 kts 112°
2026-05-05 17:03 34.51783 113.84608 496 ft 22 kts 98°
2026-05-05 17:03 34.51781 113.84776 495 ft 16 kts 83°
2026-05-05 17:03 34.51795 113.84900 496 ft 13 kts 83°
2026-05-05 17:04 34.51804 113.85009 497 ft 11 kts 93°
2026-05-05 17:04 34.51782 113.85098 498 ft 9 kts 104°
2026-05-05 17:04 34.51810 113.85153 499 ft 8 kts 24°
2026-05-05 17:04 34.51866 113.85181 498 ft 9 kts 22°
2026-05-05 17:05 34.51937 113.85216 497 ft 12 kts 22°
2026-05-05 17:05 34.52025 113.85261 495 ft 15 kts 22°
2026-05-05 17:05 34.52128 113.85312 494 ft 16 kts 22°
2026-05-05 17:05 34.52243 113.85370 494 ft 18 kts 22°
2026-05-05 17:06 34.52372 113.85434 492 ft 21 kts 22°
2026-05-05 17:06 34.52511 113.85503 490 ft 21 kts 22°
2026-05-05 17:06 34.52654 113.85575 487 ft 22 kts 22°
2026-05-05 17:06 34.52799 113.85647 486 ft 21 kts 22°
2026-05-05 17:07 34.52928 113.85712 485 ft 17 kts 23°
2026-05-05 17:07 34.53040 113.85767 480 ft 14 kts 22°
2026-05-05 17:07 34.53096 113.85751 479 ft 8 kts 294°
2026-05-05 17:07 34.53115 113.85696 481 ft 5 kts 292°
2026-05-05 17:08 34.53133 113.85643 482 ft 9 kts 292°
2026-05-05 17:08 34.53164 113.85550 483 ft 12 kts 292°
2026-05-05 17:08 34.53198 113.85453 488 ft 12 kts 292°
2026-05-05 17:08 34.53228 113.85363 492 ft 10 kts 292°
2026-05-05 17:09 34.53255 113.85284 496 ft 9 kts 292°
2026-05-05 17:09 34.53284 113.85201 497 ft 11 kts 292°
2026-05-05 17:09 34.53241 113.85146 498 ft 9 kts 202°
2026-05-05 17:09 34.53184 113.85117 498 ft 8 kts 202°
2026-05-05 17:10 34.53130 113.85092 498 ft 8 kts 201°
2026-05-05 17:10 34.53098 113.85066 497 ft 4 kts 260°
2026-05-05 17:10 34.53106 113.85028 496 ft 2 kts 291°
2026-05-05 17:10 34.53110 113.85014 496 ft 0 kts 292°
2026-05-05 17:11 34.53111 113.85012 496 ft 0 kts 292°